| time (UTC) | temp F | wind direction | speed MPH | gust MPH | rain 1hr in | rain 24hr in | rain mn in | humidity % | barometer mb |
| 20260906150012 | 0 | 0.0 | 0.0 | 0.00 | 0.06 | 0.06 | 1015.3 | ||
| 20260906144501 | 0 | 0.0 | 0.0 | 0.00 | 0.06 | 0.06 | 1015.0 | ||
| 20260906143059 | 0 | 0.0 | 0.0 | 0.00 | 0.06 | 0.06 | 1014.9 | ||
| 20260906141543 | 0 | 0.0 | 0.0 | 0.00 | 0.06 | 0.06 | 1014.8 | ||
| 20260906140045 | 0 | 0.0 | 0.0 | 0.00 | 0.06 | 0.06 | 1014.5 | ||
| 20260906134532 | 0 | 0.0 | 0.0 | 0.00 | 0.06 | 0.06 | 1014.3 | ||
| 20260906133028 | 0 | 0.0 | 0.0 | 0.00 | 0.06 | 0.06 | 1014.1 | ||
| 20260906131533 | 62 | 97 | 3.0 | 6.0 | 0.00 | 0.06 | 0.06 | 86 | 1014.0 |
| 20260906130024 | 63 | 94 | 2.0 | 7.0 | 0.00 | 0.06 | 0.06 | 86 | 1013.9 |
| 20260906124523 | 63 | 75 | 3.0 | 6.0 | 0.00 | 0.06 | 0.06 | 85 | 1013.6 |
| 20260906123022 | 64 | 105 | 0.0 | 4.0 | 0.00 | 0.06 | 0.06 | 83 | 1013.6 |
| 20260906121509 | 63 | 117 | 0.0 | 3.0 | 0.00 | 0.06 | 0.06 | 86 | 1013.6 |
| 20260906120007 | 63 | 99 | 0.0 | 3.0 | 0.00 | 0.06 | 0.06 | 86 | 1013.7 |
| 20260906114506 | 63 | 115 | 0.0 | 4.0 | 0.00 | 0.06 | 0.06 | 86 | 1013.6 |
| 20260906113006 | 63 | 110 | 0.0 | 1.0 | 0.01 | 0.06 | 0.06 | 87 | 1013.7 |
| 20260906111504 | 62 | 109 | 0.0 | 5.0 | 0.02 | 0.06 | 0.06 | 89 | 1013.9 |
| 20260906110105 | 62 | 72 | 0.0 | 4.0 | 0.03 | 0.06 | 0.06 | 90 | 1014.0 |
| 20260906104503 | 61 | 103 | 0.0 | 3.0 | 0.03 | 0.06 | 0.06 | 91 | 1013.8 |
| 20260906103003 | 62 | 84 | 2.0 | 7.0 | 0.03 | 0.05 | 0.05 | 88 | 1013.8 |
| 20260906101550 | 62 | 78 | 2.0 | 6.0 | 0.02 | 0.04 | 0.04 | 87 | 1013.6 |
| 20260906100005 | 62 | 101 | 2.0 | 4.0 | 0.01 | 0.03 | 0.03 | 88 | 1013.6 |
| 20260906094504 | 62 | 101 | 0.0 | 2.0 | 0.00 | 0.02 | 0.02 | 89 | 1013.6 |
| 20260906093009 | 62 | 79 | 0.0 | 4.0 | 0.01 | 0.02 | 0.02 | 88 | 1013.5 |
| 20260906091502 | 62 | 105 | 2.0 | 6.0 | 0.01 | 0.02 | 0.02 | 88 | 1013.6 |
| 20260906090137 | 62 | 96 | 0.0 | 4.0 | 0.02 | 0.02 | 0.02 | 88 | 1013.6 |
| 20260906090007 | 62 | 96 | 0.0 | 4.0 | 0.02 | 0.02 | 0.02 | 88 | 1013.6 |
| 20260906084550 | 62 | 103 | 0.0 | 2.0 | 0.02 | 0.02 | 0.02 | 88 | 1013.6 |
| 20260906083042 | 62 | 101 | 0.0 | 1.0 | 0.01 | 0.01 | 0.01 | 88 | 1013.8 |
| 20260906081518 | 63 | 101 | 0.0 | 1.0 | 0.01 | 0.01 | 0.01 | 84 | 1013.9 |
| 20260906080017 | 64 | 96 | 0.0 | 1.0 | 0.00 | 0.00 | 0.00 | 79 | 1013.9 |
| 20260906074501 | 64 | 102 | 0.0 | 4.0 | 0.00 | 0.00 | 0.00 | 79 | 1013.8 |
| 20260906073100 | 64 | 107 | 0.0 | 3.0 | 0.00 | 0.00 | 0.00 | 80 | 1013.6 |
| 20260906071556 | 64 | 102 | 1.0 | 3.0 | 0.00 | 0.00 | 0.00 | 79 | 1013.6 |
| 20260906070053 | 64 | 103 | 1.0 | 3.0 | 0.00 | 0.00 | 0.00 | 79 | 1013.6 |
| 20260906064552 | 64 | 78 | 1.0 | 4.0 | 0.00 | 0.00 | 0.00 | 78 | 1013.5 |
| 20260906063054 | 64 | 105 | 0.0 | 4.0 | 0.00 | 0.00 | 0.00 | 78 | 1013.5 |
| 20260906061554 | 65 | 88 | 2.0 | 4.0 | 0.00 | 0.00 | 0.00 | 79 | 1013.3 |
| 20260906060046 | 65 | 97 | 0.0 | 5.0 | 0.00 | 0.00 | 0.00 | 77 | 1013.3 |
| 20260906054537 | 65 | 88 | 2.0 | 5.0 | 0.00 | 0.00 | 0.00 | 77 | 1013.5 |
| 20260906053034 | 65 | 101 | 1.0 | 4.0 | 0.00 | 0.00 | 0.00 | 77 | 1013.3 |
| 20260906051537 | 65 | 103 | 0.0 | 1.0 | 0.00 | 0.00 | 0.00 | 76 | 1013.4 |
| 20260906050030 | 65 | 105 | 0.0 | 3.0 | 0.00 | 0.00 | 0.00 | 74 | 1013.5 |
| 20260906044528 | 65 | 84 | 1.0 | 3.0 | 0.00 | 0.00 | 0.00 | 76 | 1013.5 |
| 20260906043030 | 64 | 113 | 0.0 | 1.0 | 0.00 | 0.00 | 0.00 | 75 | 1013.5 |
| 20260906041536 | 65 | 131 | 0.0 | 1.0 | 0.00 | 0.00 | 0.00 | 72 | 1013.5 |
| 20260906040023 | 65 | 147 | 0.0 | 0.0 | 0.00 | 0.00 | 0.00 | 71 | 1013.3 |
| 20260906034514 | 66 | 148 | 0.0 | 1.0 | 0.00 | 0.00 | 0.00 | 68 | 1013.2 |
| 20260906033011 | 66 | 105 | 0.0 | 2.0 | 0.00 | 0.00 | 0.00 | 67 | 1013.0 |
| 20260906031509 | 65 | 103 | 0.0 | 3.0 | 0.00 | 0.00 | 0.00 | 66 | 1012.8 |
| 20260906030006 | 65 | 107 | 1.0 | 3.0 | 0.00 | 0.00 | 0.00 | 64 | 1012.6 |
| 20260906024504 | 65 | 106 | 0.0 | 1.0 | 0.00 | 0.00 | 0.00 | 61 | 1012.4 |
| 20260906023002 | 65 | 105 | 0.0 | 1.0 | 0.00 | 0.00 | 0.00 | 59 | 1012.4 |
| 20260906021502 | 66 | 107 | 0.0 | 3.0 | 0.00 | 0.00 | 0.00 | 58 | 1012.3 |
| 20260906020105 | 67 | 107 | 0.0 | 4.0 | 0.00 | 0.00 | 0.00 | 56 | 1012.2 |
| 20260906014544 | 68 | 99 | 0.0 | 5.0 | 0.00 | 0.00 | 0.00 | 55 | 1012.1 |
| 20260906013032 | 69 | 97 | 2.0 | 6.0 | 0.00 | 0.00 | 0.00 | 54 | 1012.1 |
| 20260906011535 | 70 | 108 | 2.0 | 8.0 | 0.00 | 0.00 | 0.00 | 52 | 1012.1 |
| 20260906010055 | 72 | 58 | 3.0 | 9.0 | 0.00 | 0.00 | 0.00 | 49 | 1012.0 |
| 20260906004528 | 73 | 74 | 3.0 | 8.0 | 0.00 | 0.00 | 0.00 | 47 | 1012.1 |
| 20260906003027 | 75 | 119 | 4.0 | 9.0 | 0.00 | 0.00 | 0.00 | 45 | 1012.1 |
| 20260906001538 | 77 | 98 | 3.0 | 9.0 | 0.00 | 0.00 | 0.00 | 44 | 1012.3 |
| 20260906000026 | 77 | 99 | 5.0 | 10.0 | 0.00 | 0.00 | 0.00 | 44 | 1012.3 |
| 20260905234505 | 77 | 96 | 3.0 | 9.0 | 0.00 | 0.00 | 0.00 | 43 | 1012.4 |
| 20260905233003 | 77 | 315 | 5.0 | 12.0 | 0.00 | 0.00 | 0.00 | 43 | 1012.5 |
| 20260905231503 | 77 | 78 | 3.0 | 12.0 | 0.00 | 0.00 | 0.00 | 41 | 1012.5 |
| 20260905230002 | 77 | 75 | 3.0 | 11.0 | 0.00 | 0.00 | 0.00 | 40 | 1012.7 |
| 20260905224502 | 78 | 70 | 6.0 | 12.0 | 0.00 | 0.00 | 0.00 | 39 | 1012.7 |
| 20260905223002 | 78 | 54 | 4.0 | 11.0 | 0.00 | 0.00 | 0.00 | 39 | 1013.1 |
| 20260905221600 | 78 | 26 | 6.0 | 14.0 | 0.00 | 0.00 | 0.00 | 41 | 1013.3 |
| 20260905220058 | 77 | 64 | 6.0 | 12.0 | 0.00 | 0.00 | 0.00 | 40 | 1013.3 |
| 20260905214546 | 76 | 64 | 5.0 | 12.0 | 0.00 | 0.00 | 0.00 | 39 | 1013.6 |
| 20260905213053 | 76 | 73 | 4.0 | 12.0 | 0.00 | 0.00 | 0.00 | 41 | 1013.9 |
| 20260905211546 | 73 | 70 | 6.0 | 11.0 | 0.00 | 0.00 | 0.00 | 43 | 1014.2 |
| 20260905210040 | 74 | 148 | 4.0 | 10.0 | 0.00 | 0.00 | 0.00 | 39 | 1014.3 |
| 20260905204535 | 0 | 0.0 | 0.0 | 0.00 | 0.00 | 0.00 | 1014.4 | ||
| 20260905203045 | 0 | 0.0 | 0.0 | 0.00 | 0.00 | 0.00 | 1014.5 | ||
| 20260905201548 | 0 | 0.0 | 0.0 | 0.00 | 0.00 | 0.00 | 1014.5 | ||
| 20260905200023 | 0 | 0.0 | 0.0 | 0.00 | 0.00 | 0.00 | 1014.5 | ||
| 20260905194502 | 0 | 0.0 | 0.0 | 0.00 | 0.00 | 0.00 | 1014.7 | ||
| 20260905193057 | 0 | 0.0 | 0.0 | 0.00 | 0.00 | 0.00 | 1014.9 | ||
| 20260905191539 | 0 | 0.0 | 0.0 | 0.00 | 0.00 | 0.00 | 1014.9 | ||
| 20260905190036 | 0 | 0.0 | 0.0 | 0.00 | 0.00 | 0.00 | 1014.9 | ||
| 20260905184531 | 0 | 0.0 | 0.0 | 0.00 | 0.00 | 0.00 | 1014.9 | ||
| 20260905183029 | 0 | 0.0 | 0.0 | 0.00 | 0.00 | 0.00 | 1015.2 | ||
| 20260905181520 | 0 | 0.0 | 0.0 | 0.00 | 0.00 | 0.00 | 1015.3 | ||
| 20260905180016 | 0 | 0.0 | 0.0 | 0.00 | 0.00 | 0.00 | 1015.3 | ||
| 20260905174511 | 0 | 0.0 | 0.0 | 0.00 | 0.00 | 0.00 | 1015.1 | ||
| 20260905173007 | 0 | 0.0 | 0.0 | 0.00 | 0.00 | 0.00 | 1015.2 | ||
| 20260905171501 | 0 | 0.0 | 0.0 | 0.00 | 0.00 | 0.00 | 1015.1 | ||
| 20260905170054 | 0 | 0.0 | 0.0 | 0.00 | 0.00 | 0.00 | 1015.1 | ||
| 20260905164541 | 0 | 0.0 | 0.0 | 0.00 | 0.00 | 0.00 | 1015.1 | ||
| 20260905163036 | 0 | 0.0 | 0.0 | 0.00 | 0.00 | 0.00 | 1015.3 | ||
| 20260905161532 | 69 | 89 | 0.0 | 3.0 | 0.00 | 0.00 | 0.00 | 13 | 1015.2 |
| 20260905160028 | 68 | 107 | 0.0 | 3.0 | 0.00 | 0.00 | 0.00 | 12 | 1015.0 |
| 20260905154524 | 65 | 91 | 0.0 | 1.0 | 0.00 | 0.00 | 0.00 | 13 | 1014.6 |
| 20260905153022 | 0 | 0.0 | 0.0 | 0.00 | 0.00 | 0.00 | 1014.3 | ||
| 20260905151522 | 0 | 0.0 | 0.0 | 0.00 | 0.00 | 0.00 | 1014.1 |